Weather History for KROG - January, 2014

Change the Weather History Date:

Wednesday, January 1, 2014

  Actual Average Record
Temperature  
Mean Temperature 38 °F -  
Max Temperature 55 °F 44 °F 69 °F (2006)
Min Temperature 21 °F 28 °F 10 °F (2001)
Degree Days  
Heating Degree Days 27    
Moisture  
Dew Point 24 °F    
Average Humidity 65    
Maximum Humidity 93    
Minimum Humidity 33    
Precipitation  
Precipitation 0.00 in - - ()
Sea Level Pressure  
Sea Level Pressure 30.06 in    
Wind  
Wind Speed 10 mph (SW)    
Max Wind Speed 17 mph    
Max Gust Speed 25 mph    
Visibility 8 miles    
Events Snow    
Averages and records for this station are not official NWS values.
T = Trace of Precipitation, MM = Missing Value Source: NWS Daily Summary

Daily Weather History Graph

Daily Weather History Graph

Search for Another Location

Airport or City:

Trip Planner

Search our weather history database for the weather conditions in past years. The results will help you decide how hot, cold, wet, or windy it might be!

Date:

Astronomy

Jan. 01, 2014 Rise Set
Actual Time 7:28 AM CST 5:12 PM CST
Civil Twilight 6:59 AM CST 5:40 PM CST
Nautical Twilight 6:27 AM CST 6:13 PM CST
Astronomical Twilight 5:55 AM CST 6:44 PM CST
Moon 7:20 AM CST (1/1) 5:55 PM CST (1/1)
Length of Visible Light 10h 41m
Length of Day
9h 44m
New Moon, 0% of the Moon is Illuminated
Jan 1
New Moon
Jan 7
First Quarter
Jan 15
Full
Jan 23
Last Quarter
Jan 30
New

Hourly Weather History & Observations

Time (CST) Temp. Windchill Dew Point Humidity Pressure Visibility Wind Dir Wind Speed Gust Speed Precip Events Conditions
12:57 AM 35.1 °F 30.1 °F 21.0 °F 57% 30.17 in 10.0 mi South 5.8 mph - N/A   Clear
1:57 AM 34.0 °F 26.6 °F 23.0 °F 64% 30.15 in 10.0 mi South 9.2 mph - N/A   Clear
2:57 AM 34.0 °F 28.8 °F 21.9 °F 61% 30.13 in 10.0 mi SSE 5.8 mph - N/A   Clear
3:57 AM 34.0 °F 28.0 °F 23.0 °F 64% 30.11 in 10.0 mi SSE 6.9 mph - N/A   Clear
4:57 AM 33.1 °F 26.9 °F 23.0 °F 66% 30.09 in 10.0 mi SSE 6.9 mph - N/A   Clear
5:57 AM 35.1 °F 27.9 °F 21.9 °F 59% 30.08 in 10.0 mi South 9.2 mph - N/A   Clear
6:57 AM 33.1 °F 26.9 °F 21.9 °F 64% 30.08 in 10.0 mi SE 6.9 mph - N/A   Clear
7:57 AM 33.1 °F 26.9 °F 21.9 °F 64% 30.09 in 10.0 mi SE 6.9 mph - N/A   Clear
8:57 AM 39.9 °F 33.4 °F 21.9 °F 49% 30.07 in 10.0 mi SE 10.4 mph - N/A   Clear
9:57 AM 46.0 °F 41.4 °F 21.9 °F 39% 30.06 in 10.0 mi South 9.2 mph - N/A   Clear
10:57 AM 51.1 °F - 23.0 °F 33% 30.04 in 10.0 mi SE 9.2 mph - N/A   Clear
11:57 AM 55.0 °F - 26.1 °F 33% 29.99 in 10.0 mi South 12.7 mph 25.3 mph N/A   Clear
12:57 PM 54.0 °F - 30.0 °F 40% 29.94 in 10.0 mi South 13.8 mph - N/A   Clear
1:57 PM 53.1 °F - 32.0 °F 45% 29.90 in 10.0 mi SSE 9.2 mph - N/A   Clear
2:57 PM 53.1 °F - 33.1 °F 47% 29.90 in 10.0 mi SSW 9.2 mph - N/A   Clear
3:57 PM 51.1 °F - 33.1 °F 50% 29.92 in 10.0 mi South 9.2 mph - N/A   Partly Cloudy
4:57 PM 48.9 °F - 33.1 °F 54% 29.94 in 10.0 mi WSW 8.1 mph - N/A   Overcast
5:57 PM 48.0 °F - 32.0 °F 54% 29.96 in 10.0 mi West 5.8 mph - N/A   Overcast
6:57 PM 42.1 °F 36.6 °F 28.0 °F 58% 30.00 in 10.0 mi NNW 9.2 mph - N/A   Overcast
7:57 PM 39.0 °F 30.3 °F 27.0 °F 62% 30.02 in 10.0 mi NW 16.1 mph 19.6 mph N/A   Overcast
8:57 PM 30.9 °F 20.2 °F 25.0 °F 79% 30.08 in 10.0 mi NNW 15.0 mph 20.7 mph N/A   Overcast
9:36 PM 28.4 °F 16.2 °F 23.0 °F 80% 30.06 in 10.0 mi NW 17.3 mph 21.9 mph N/A   Overcast
9:57 PM 27.0 °F 15.2 °F 21.9 °F 81% 30.11 in 10.0 mi NW 15.0 mph 21.9 mph 0.00 in Snow Light Snow
10:34 PM 24.8 °F 11.9 °F 21.2 °F 86% 30.10 in 2.0 mi NNW 16.1 mph 25.3 mph 0.00 in Snow Light Snow
10:50 PM 23.0 °F 10.1 °F 19.4 °F 86% 30.11 in 2.5 mi NNW 15.0 mph 24.2 mph 0.00 in Snow Light Snow
10:57 PM 23.0 °F 10.1 °F 19.4 °F 86% 30.11 in 4.0 mi NNW 15.0 mph 23.0 mph 0.00 in Snow Light Snow
10:59 PM 23.0 °F 11.1 °F 19.9 °F 88% 30.14 in 4.0 mi NNW 12.7 mph 23.0 mph 0.00 in Snow Light Snow
11:04 PM 23.0 °F 10.6 °F 19.4 °F 86% 30.12 in 5.0 mi NNW 13.8 mph 19.6 mph 0.00 in Snow Light Snow
11:31 PM 23.0 °F 9.2 °F 19.4 °F 86% 30.13 in 2.5 mi NW 17.3 mph 21.9 mph 0.00 in Snow Light Snow
11:38 PM 21.2 °F 7.8 °F 19.4 °F 93% 30.13 in 3.0 mi NW 15.0 mph 21.9 mph 0.00 in Snow Light Snow
11:57 PM 21.9 °F 8.2 °F 19.0 °F 89% 30.15 in 5.0 mi NW 16.1 mph 19.6 mph 0.00 in Snow Light Snow